When you browse on this site, cookies collect data to enhance your experience and personalize the content and advertising you see.
Visit our Privacy Policy to learn more. By continuing to use the site, you agree to this use of cookies and data.
  • In United Kingdom
  • List of Countries
  • For 7 days
  • Water Temperature
  • Satellite Maps
  • Weather Map
  • Weather Widgets
  • user-avatar
    Login

    Hourly Weather London

    Today, 25 April, Thursday

    Time Temperature Precipitation Wind Pressure Humidity
    00:00 +9°C° 0 mm 3 mps 747 mmHg 82%
    01:00 +10°C° 0 mm 4 mps 746 mmHg 81%
    02:00 +9°C° 0 mm 5 mps 746 mmHg 80%
    03:00 +10°C° 0 mm 6 mps 745 mmHg 78%
    04:00 +10°C° 0.1 mm 5 mps 745 mmHg 80%
    05:00 +10°C° 0.1 mm 5 mps 745 mmHg 82%
    06:00 +10°C° 0.1 mm 5 mps 746 mmHg 84%
    07:00 +10°C° 0.2 mm 5 mps 746 mmHg 80%
    08:00 +12°C° 0.2 mm 5 mps 746 mmHg 77%
    09:00 +13°C° 0.2 mm 5 mps 747 mmHg 73%
    10:00 +13°C° 0.2 mm 5 mps 747 mmHg 70%
    11:00 +13°C° 0.2 mm 6 mps 748 mmHg 67%
    12:00 +13°C° 0.2 mm 6 mps 748 mmHg 64%
    13:00 +14°C° 0.1 mm 6 mps 748 mmHg 60%
    14:00 +14°C° 0.1 mm 6 mps 749 mmHg 56%
    15:00 +15°C° 0.1 mm 7 mps 749 mmHg 51%
    16:00 +14°C° 0 mm 6 mps 750 mmHg 54%
    17:00 +14°C° 0 mm 5 mps 750 mmHg 56%
    18:00 +13°C° 0 mm 4 mps 750 mmHg 59%
    19:00 +12°C° 0 mm 4 mps 751 mmHg 62%
    20:00 +11°C° 0 mm 4 mps 751 mmHg 66%
    21:00 +10°C° 0 mm 3 mps 752 mmHg 69%
    22:00 +10°C° 0 mm 3 mps 752 mmHg 71%
    23:00 +10°C° 0 mm 3 mps 752 mmHg 73%

    Tomorrow, 26 April, Friday

    Time Temperature Precipitation Wind Pressure Humidity
    00:00 +10°C° 0 mm 3 mps 753 mmHg 75%
    01:00 +9°C° 0 mm 3 mps 753 mmHg 78%
    02:00 +9°C° 0 mm 3 mps 754 mmHg 81%
    03:00 +9°C° 0 mm 3 mps 754 mmHg 84%
    04:00 +9°C° 0 mm 3 mps 754 mmHg 83%
    05:00 +9°C° 0 mm 3 mps 755 mmHg 82%
    06:00 +9°C° 0 mm 3 mps 755 mmHg 82%
    07:00 +11°C° 0 mm 4 mps 755 mmHg 75%
    08:00 +12°C° 0 mm 4 mps 756 mmHg 68%
    09:00 +13°C° 0 mm 5 mps 756 mmHg 60%
    10:00 +14°C° 0 mm 6 mps 756 mmHg 58%
    11:00 +15°C° 0 mm 6 mps 756 mmHg 55%
    12:00 +15°C° 0 mm 7 mps 756 mmHg 52%
    13:00 +15°C° 0.2 mm 6 mps 757 mmHg 57%
    14:00 +14°C° 0.2 mm 6 mps 757 mmHg 62%
    15:00 +14°C° 0.2 mm 5 mps 757 mmHg 67%
    16:00 +13°C° 0.2 mm 5 mps 757 mmHg 69%
    17:00 +12°C° 0.2 mm 5 mps 757 mmHg 71%
    18:00 +12°C° 0.2 mm 5 mps 757 mmHg 72%
    19:00 +10°C° 0 mm 5 mps 757 mmHg 72%
    20:00 +9°C° 0 mm 6 mps 757 mmHg 71%
    21:00 +9°C° 0 mm 6 mps 757 mmHg 71%
    22:00 +9°C° 0.3 mm 6 mps 757 mmHg 75%
    23:00 +9°C° 0.3 mm 7 mps 756 mmHg 79%

    Day after tomorrow, 27 April, Saturday

    Time Temperature Precipitation Wind Pressure Humidity
    00:00 +9°C° 0.3 mm 8 mps 755 mmHg 83%
    01:00 +8°C° 0.2 mm 7 mps 755 mmHg 79%
    02:00 +6°C° 0.2 mm 7 mps 754 mmHg 75%
    03:00 +6°C° 0.2 mm 7 mps 753 mmHg 71%
    04:00 +6°C° 0.2 mm 8 mps 752 mmHg 72%
    05:00 +6°C° 0.2 mm 8 mps 752 mmHg 73%
    06:00 +6°C° 0.2 mm 9 mps 751 mmHg 74%
    07:00 +6°C° 0.5 mm 10 mps 751 mmHg 73%
    08:00 +6°C° 0.5 mm 10 mps 751 mmHg 72%
    09:00 +6°C° 0.5 mm 11 mps 752 mmHg 71%
    10:00 +7°C° 0.6 mm 11 mps 752 mmHg 73%
    11:00 +7°C° 0.6 mm 10 mps 753 mmHg 75%
    12:00 +7°C° 0.6 mm 10 mps 753 mmHg 77%
    13:00 +7°C° 0.3 mm 10 mps 754 mmHg 76%
    14:00 +7°C° 0.3 mm 10 mps 755 mmHg 74%
    15:00 +8°C° 0.3 mm 10 mps 755 mmHg 73%
    16:00 +7°C° 0.4 mm 10 mps 756 mmHg 75%
    17:00 +7°C° 0.4 mm 9 mps 757 mmHg 77%
    18:00 +7°C° 0.4 mm 9 mps 758 mmHg 78%
    19:00 +6°C° 1.2 mm 9 mps 759 mmHg 80%
    20:00 +6°C° 1.2 mm 8 mps 760 mmHg 81%
    21:00 +6°C° 1.2 mm 8 mps 761 mmHg 82%
    22:00 +6°C° 0.3 mm 8 mps 761 mmHg 80%
    23:00 +5°C° 0.3 mm 7 mps 762 mmHg 78%

    28 April, Sunday

    Time Temperature Precipitation Wind Pressure Humidity
    00:00 +5°C° 0.3 mm 7 mps 762 mmHg 76%
    01:00 +5°C° 0 mm 7 mps 763 mmHg 76%
    02:00 +5°C° 0 mm 6 mps 763 mmHg 75%
    03:00 +5°C° 0 mm 6 mps 764 mmHg 75%
    04:00 +5°C° 0 mm 6 mps 764 mmHg 75%
    05:00 +6°C° 0 mm 5 mps 764 mmHg 74%
    06:00 +6°C° 0 mm 5 mps 765 mmHg 74%
    07:00 +7°C° 0 mm 5 mps 765 mmHg 73%
    08:00 +8°C° 0 mm 5 mps 766 mmHg 72%
    09:00 +9°C° 0 mm 5 mps 766 mmHg 71%
    10:00 +10°C° 0 mm 4 mps 766 mmHg 70%
    11:00 +11°C° 0 mm 4 mps 766 mmHg 69%
    12:00 +11°C° 0 mm 4 mps 766 mmHg 68%
    13:00 +12°C° 0 mm 4 mps 766 mmHg 68%
    14:00 +12°C° 0 mm 4 mps 766 mmHg 68%
    15:00 +12°C° 0 mm 3 mps 766 mmHg 69%
    16:00 +12°C° 0.1 mm 3 mps 766 mmHg 71%
    17:00 +11°C° 0.1 mm 3 mps 766 mmHg 74%
    18:00 +12°C° 0.1 mm 2 mps 766 mmHg 77%
    19:00 +10°C° 0 mm 2 mps 767 mmHg 80%
    20:00 +9°C° 0 mm 2 mps 767 mmHg 83%
    21:00 +8°C° 0 mm 2 mps 768 mmHg 86%
    22:00 +8°C° 0 mm 2 mps 768 mmHg 87%
    23:00 +9°C° 0 mm 1 mps 768 mmHg 89%

    29 April, Monday

    Time Temperature Precipitation Wind Pressure Humidity
    00:00 +8°C° 0 mm 1 mps 768 mmHg 90%
    01:00 +8°C° 0 mm 1 mps 768 mmHg 90%
    02:00 +8°C° 0 mm 1 mps 768 mmHg 91%
    03:00 +8°C° 0 mm 1 mps 768 mmHg 91%
    04:00 +8°C° 0 mm 1 mps 768 mmHg 90%
    05:00 +8°C° 0 mm 1 mps 768 mmHg 90%
    06:00 +8°C° 0 mm 1 mps 768 mmHg 89%
    07:00 +10°C° 0 mm 1 mps 768 mmHg 81%
    08:00 +11°C° 0 mm 1 mps 768 mmHg 73%
    09:00 +13°C° 0 mm 1 mps 769 mmHg 66%
    10:00 +14°C° 0 mm 2 mps 768 mmHg 60%
    11:00 +15°C° 0 mm 2 mps 768 mmHg 54%
    12:00 +17°C° 0 mm 2 mps 768 mmHg 49%
    13:00 +17°C° 0 mm 2 mps 768 mmHg 49%
    14:00 +17°C° 0 mm 2 mps 768 mmHg 49%
    15:00 +17°C° 0 mm 2 mps 768 mmHg 49%
    16:00 +17°C° 0 mm 2 mps 767 mmHg 53%
    17:00 +16°C° 0 mm 2 mps 767 mmHg 57%
    18:00 +16°C° 0 mm 2 mps 767 mmHg 61%
    19:00 +14°C° 0 mm 2 mps 768 mmHg 66%
    20:00 +13°C° 0 mm 2 mps 768 mmHg 71%
    21:00 +12°C° 0 mm 2 mps 768 mmHg 76%
    22:00 +10°C° 0 mm 2 mps 768 mmHg 78%
    23:00 +10°C° 0 mm 1 mps 768 mmHg 80%

    30 April, Tuesday

    Time Temperature Precipitation Wind Pressure Humidity
    00:00 +10°C° 0 mm 1 mps 768 mmHg 81%
    01:00 +9°C° 0 mm 1 mps 767 mmHg 82%
    02:00 +9°C° 0 mm 1 mps 767 mmHg 83%
    03:00 +8°C° 0 mm 1 mps 767 mmHg 84%
    04:00 +7°C° 0 mm 2 mps 767 mmHg 84%
    05:00 +8°C° 0 mm 2 mps 767 mmHg 84%
    06:00 +8°C° 0 mm 2 mps 767 mmHg 83%
    07:00 +9°C° 0 mm 2 mps 767 mmHg 80%
    08:00 +10°C° 0 mm 2 mps 767 mmHg 77%
    09:00 +11°C° 0 mm 3 mps 767 mmHg 74%
    10:00 +12°C° 0 mm 3 mps 766 mmHg 74%
    11:00 +12°C° 0 mm 3 mps 766 mmHg 74%
    12:00 +12°C° 0 mm 3 mps 766 mmHg 74%
    13:00 +12°C° 0 mm 3 mps 766 mmHg 69%
    14:00 +13°C° 0 mm 3 mps 766 mmHg 65%
    15:00 +14°C° 0 mm 2 mps 765 mmHg 61%
    16:00 +13°C° 0 mm 3 mps 765 mmHg 60%
    17:00 +13°C° 0 mm 3 mps 765 mmHg 59%
    18:00 +12°C° 0 mm 3 mps 765 mmHg 58%
    19:00 +11°C° 0 mm 3 mps 765 mmHg 62%
    20:00 +10°C° 0 mm 3 mps 765 mmHg 66%
    21:00 +9°C° 0 mm 2 mps 766 mmHg 70%
    22:00 +8°C° 0 mm 2 mps 765 mmHg 74%
    23:00 +8°C° 0 mm 3 mps 765 mmHg 78%
    Show more